{"data":{"norad_id":62054,"epoch":"2026-05-25T02:44:47.311872Z","epoch_age_seconds":61663,"freshness":"FRESH","line1":"1 62054U 24216Y   26145.11443648  .00011126  00000+0  41311-3 0  9994","line2":"2 62054  42.9991 184.7302 0001494 280.8961  79.1723 15.27589812 85572","mean_motion":15.27589812,"eccentricity":0.0001494,"inclination_deg":42.9991,"raan_deg":184.7302,"arg_perigee_deg":280.8961,"mean_anomaly_deg":79.1723,"bstar":0.00041311,"rev_number":8557,"period_min":94.26614322039,"perigee_km":481.99465872577,"apogee_km":484.04477235237,"semimajor_km":6861.1567155391,"source":"CELESTRAK","updated_at":"2026-05-25T13:38:19.528831Z"}}